Weather History for Walnut Ridge, AR

Change the Weather History Date:

Thursday, November 22, 2012

  Actual Average Record
Temperature  
Mean Temperature 50 °F -  
Max Temperature 64 °F 54 °F 71 °F (1999)
Min Temperature 37 °F 38 °F 23 °F (2008)
Degree Days  
Heating Degree Days 14    
Moisture  
Dew Point 45 °F    
Average Humidity 83    
Maximum Humidity 100    
Minimum Humidity 56    
Precipitation  
Precipitation 0.08 in - - ()
Sea Level Pressure  
Sea Level Pressure 30.15 in    
Wind  
Wind Speed 6 mph (South)    
Max Wind Speed 20 mph    
Max Gust Speed 25 mph    
Visibility 6 miles    
Events      
Averages and records for this station are not official NWS values.
T = Trace of Precipitation, MM = Missing Value Source: NWS Daily Summary

Daily Weather History Graph

Daily Weather History Graph

Search for Another Location

Airport:

Trip Planner

Search our weather history database for the weather conditions in past years. The results will help you decide how hot, cold, wet, or windy it might be!

Date:

Astronomy

Nov. 22, 2012 Rise Set
Actual Time 6:47 AM CST 4:51 PM CST
Civil Twilight 6:20 AM CST 5:19 PM CST
Nautical Twilight 5:48 AM CST 5:50 PM CST
Astronomical Twilight 5:18 AM CST 6:21 PM CST
Moon 1:29 PM CST (11/22) 1:17 AM CST (11/22)
Length of Visible Light 10h 59m
Length of Day
10h 03m
Waxing Gibbous, 71% of the Moon is Illuminated
Nov 22
Waxing Gibbous
Nov 28
Full
Dec 6
Last Quarter
Dec 13
New
Dec 19
First Quarter

Hourly Weather History & Observations

Time (CST) Temp. Windchill Dew Point Humidity Pressure Visibility Wind Dir Wind Speed Gust Speed Precip Events Conditions
12:15 AM 44.6 °F 42.2 °F 42.8 °F 93% 30.19 in 1.2 mi South 4.6 mph - N/A   Clear
12:35 AM 42.8 °F 41.1 °F 41.0 °F 93% 30.19 in 1.5 mi WNW 3.5 mph - N/A   Clear
12:55 AM 42.8 °F - 41.0 °F 93% 30.19 in 2.0 mi Calm Calm - N/A   Clear
1:16 AM 42.8 °F - 41.0 °F 93% 30.19 in 1.2 mi Calm Calm - N/A   Clear
1:35 AM 42.8 °F - 39.2 °F 87% 30.19 in 2.0 mi Calm Calm - N/A   Clear
1:55 AM 39.2 °F - 39.2 °F 100% 30.19 in 0.2 mi Calm Calm - N/A   Unknown
2:35 AM 39.2 °F 37.0 °F 39.2 °F 100% 30.20 in 0.2 mi NNW 3.5 mph - N/A   Overcast
2:55 AM 39.2 °F - 37.4 °F 93% 30.20 in 0.2 mi Calm Calm - N/A   Overcast
3:15 AM 37.4 °F - 37.4 °F 100% 30.20 in 0.2 mi Calm Calm - N/A   Overcast
3:35 AM 37.4 °F - 37.4 °F 100% 30.20 in 0.5 mi Calm Calm - N/A   Mostly Cloudy
3:55 AM 37.4 °F - 35.6 °F 93% 30.19 in 0.2 mi Calm Calm - N/A   Mostly Cloudy
4:15 AM 37.4 °F 34.9 °F 37.4 °F 100% 30.19 in 0.2 mi South 3.5 mph - N/A   Mostly Cloudy
4:36 AM 37.4 °F 34.9 °F 37.4 °F 100% 30.18 in 0.2 mi SSE 3.5 mph - N/A   Overcast
4:55 AM 37.4 °F 33.8 °F 37.4 °F 100% 30.18 in 0.2 mi SE 4.6 mph - N/A   Overcast
5:15 AM 37.4 °F 34.9 °F 35.6 °F 93% 30.18 in 0.2 mi SE 3.5 mph - N/A   Overcast
5:35 AM 37.4 °F 34.9 °F 37.4 °F 100% 30.19 in 0.2 mi SE 3.5 mph - N/A   Overcast
5:55 AM 37.4 °F - 35.6 °F 93% 30.19 in 0.2 mi Calm Calm - N/A   Overcast
6:15 AM 39.2 °F - 37.4 °F 93% 30.19 in 0.2 mi Calm Calm - N/A   Overcast
6:35 AM 37.4 °F - 35.6 °F 93% 30.18 in 0.2 mi Calm Calm - N/A   Overcast
6:55 AM 37.4 °F - 37.4 °F 100% 30.18 in 0.2 mi Calm Calm - N/A   Overcast
7:35 AM 39.2 °F 37.0 °F 39.2 °F 100% 30.18 in 0.2 mi South 3.5 mph - N/A   Overcast
7:55 AM 42.8 °F 41.1 °F 41.0 °F 93% 30.19 in 0.2 mi South 3.5 mph - N/A   Overcast
8:15 AM 44.6 °F 40.2 °F 42.8 °F 93% 30.18 in 1.8 mi South 8.1 mph - N/A   Scattered Clouds
8:36 AM 48.2 °F - 48.2 °F 100% 30.18 in 2.5 mi South 9.2 mph - N/A   Clear
8:55 AM 50.0 °F - 48.2 °F 94% 30.19 in 4.0 mi South 11.5 mph - N/A   Clear
9:15 AM 51.8 °F - 50.0 °F 94% 30.19 in 5.0 mi SSW 12.7 mph - N/A   Clear
9:35 AM 55.4 °F - 48.2 °F 77% 30.19 in 7.0 mi SSW 16.1 mph - N/A   Clear
9:55 AM 57.2 °F - 50.0 °F 77% 30.19 in 7.0 mi SSW 11.5 mph - N/A   Clear
10:15 AM 57.2 °F - 50.0 °F 77% 30.19 in 8.0 mi SSW 12.7 mph - N/A   Clear
10:55 AM 60.8 °F - 50.0 °F 68% 30.19 in 10.0 mi South 17.3 mph - N/A   Clear
11:35 AM 62.6 °F - 51.8 °F 68% 30.16 in 10.0 mi SSW 19.6 mph - N/A   Clear
11:55 AM 62.6 °F - 51.8 °F 68% 30.15 in 10.0 mi SSW 16.1 mph 24.2 mph N/A   Clear
12:35 PM 62.6 °F - 50.0 °F 63% 30.12 in 10.0 mi South 19.6 mph - N/A   Clear
12:55 PM 62.6 °F - 50.0 °F 63% 30.12 in 10.0 mi South 18.4 mph - N/A   Clear
1:15 PM 62.6 °F - 50.0 °F 63% 30.11 in 10.0 mi SSW 15.0 mph - N/A   Clear
1:35 PM 64.4 °F - 48.2 °F 56% 30.11 in 10.0 mi South 19.6 mph 25.3 mph N/A   Clear
1:55 PM 64.4 °F - 48.2 °F 56% 30.10 in 10.0 mi SSW 16.1 mph - N/A   Clear
2:15 PM 64.4 °F - 50.0 °F 59% 30.10 in 10.0 mi South 16.1 mph - N/A   Clear
2:36 PM 64.4 °F - 50.0 °F 59% 30.09 in 10.0 mi SSW 13.8 mph - N/A   Clear
2:55 PM 64.4 °F - 50.0 °F 59% 30.09 in 10.0 mi South 16.1 mph - N/A   Clear
3:35 PM 64.4 °F - 48.2 °F 56% 30.09 in 10.0 mi South 13.8 mph - N/A   Clear
3:55 PM 62.6 °F - 50.0 °F 63% 30.09 in 10.0 mi South 10.4 mph - N/A   Clear
4:15 PM 60.8 °F - 50.0 °F 68% 30.09 in 10.0 mi South 10.4 mph - N/A   Clear
4:35 PM 59.0 °F - 50.0 °F 72% 30.09 in 10.0 mi South 5.8 mph - N/A   Clear
4:55 PM 57.2 °F - 48.2 °F 72% 30.09 in 10.0 mi South 5.8 mph - N/A   Clear
5:35 PM 53.6 °F - 48.2 °F 82% 30.08 in 10.0 mi South 8.1 mph - N/A   Clear
5:55 PM 53.6 °F - 48.2 °F 82% 30.07 in 10.0 mi South 6.9 mph - N/A   Clear
6:35 PM 51.8 °F - 48.2 °F 88% 30.09 in 10.0 mi South 6.9 mph - N/A   Clear
6:55 PM 53.6 °F - 48.2 °F 82% 30.09 in 10.0 mi South 5.8 mph - N/A   Clear
7:35 PM 51.8 °F - 48.2 °F 88% 30.08 in 10.0 mi South 9.2 mph - N/A   Clear
7:55 PM 51.8 °F - 46.4 °F 82% 30.08 in 10.0 mi South 12.7 mph - N/A   Clear
8:35 PM 53.6 °F - 48.2 °F 82% 30.08 in 10.0 mi South 12.7 mph - N/A   Clear
8:55 PM 53.6 °F - 48.2 °F 82% 30.07 in 10.0 mi South 10.4 mph - N/A   Clear
9:35 PM 55.4 °F - 48.2 °F 77% 30.11 in 10.0 mi SW 5.8 mph - N/A   Clear
10:55 PM 55.4 °F - 48.2 °F 77% 30.13 in 10.0 mi WSW 3.5 mph - N/A   Overcast
11:35 PM 53.6 °F - 50.0 °F 88% 30.15 in 9.0 mi SW 5.8 mph - 0.01 in   Overcast
11:55 PM 53.6 °F - 51.8 °F 94% 30.13 in 8.0 mi WSW 4.6 mph - 0.08 in   Overcast